Walla Walla, WA
on Saturday, January 5, 2013

Saturday
Previous Day Next Day
Daily Summary
 ActualAverage (KPDT)Record (KPDT)
Temperature
Mean Temperature °F 34°F  
Max Temperature 30°F 40°F 62°F (1933)
Min Temperature 24°F 28°F -11°F (2004)
Degree Days
Heating Degree Days 38 31  
Month to date heating degree days 158  
Since 1 July heating degree days 2395  
Cooling Degree Days 0 0  
Month to date cooling degree days 0  
Year to date cooling degree days 0  
Moisture
Dew Point 24°F   
Average Humidity 86    
Maximum Humidity 93    
Minimum Humidity 75    
Precipitation
Precipitation 0.00 in 0.05 in 0.63 in (1912)
Month to date precipitation 0.25  
Year to date precipitation 0.25  
Snow
Snow 0.00 in 0.10 in 3.00 in (1937)
Month to date snowfall 0.8  
Year to date snowfall 0.8  
Since 1 July snowfall 8.3  
Snow Depth in   
Wind
Wind Speed 4 mph   
Max Wind Speed 9 mph   
Max Gust Speed mph   
Visibility 6 miles   
Events     

Key: T is trace of precipitation, MM is missing value
Source: NWS Daily Summary
Time(PST)TemperatureDew PointHumidity Pressure Visibility Wind DirectionWind SpeedGust SpeedPrecipitationEvents Conditions
12:38 AM 24.8°F 23.0°F 93% 30.38 in 4.0 miles SSE 8.1 mph - N/A   Scattered Clouds
12:53 AM 25.0°F 23.0°F 92% 30.42 in 4.0 miles SSE 9.2 mph - N/A   Mostly Cloudy
1:53 AM 26.1°F 24.1°F 92% 30.43 in 4.0 miles South 8.1 mph - N/A   Overcast
2:53 AM 25.0°F 23.0°F 92% 30.43 in 4.0 miles South 4.6 mph - N/A   Overcast
3:53 AM 26.1°F 24.1°F 92% 30.42 in 5.0 miles South 5.8 mph - N/A   Overcast
4:53 AM 26.1°F 24.1°F 92% 30.40 in 5.0 miles South 4.6 mph - N/A   Overcast
5:53 AM 26.1°F 24.1°F 92% 30.40 in 6.0 miles Calm Calm - N/A   Overcast
6:53 AM 26.1°F 23.0°F 88% 30.40 in 6.0 miles Calm Calm - N/A   Overcast
7:53 AM 26.1°F 24.1°F 92% 30.39 in 5.0 miles Calm Calm - N/A   Overcast
8:53 AM 26.1°F 24.1°F 92% 30.39 in 4.0 miles Calm Calm - N/A   Overcast
9:53 AM 26.1°F 24.1°F 92% 30.41 in 4.0 miles Calm Calm - N/A   Overcast
10:53 AM 27.0°F 24.1°F 89% 30.40 in 4.0 miles Calm Calm - N/A   Overcast
11:51 AM 28.4°F 23.0°F 80% 30.33 in 6.0 miles SE 3.5 mph - N/A   Haze
11:53 AM 28.0°F 23.0°F 81% 30.38 in 6.0 miles SE 3.5 mph - N/A   Haze
12:00 PM 28.4°F 23.0°F 80% 30.33 in 6.0 miles SSE 3.5 mph - N/A   Haze
12:53 PM 28.0°F 23.0°F 81% 30.37 in 7.0 miles Calm Calm - N/A   Overcast
1:53 PM 28.9°F 23.0°F 78% 30.36 in 7.0 miles ESE 3.5 mph - N/A   Overcast
2:53 PM 30.0°F 23.0°F 75% 30.35 in 8.0 miles Calm Calm - N/A   Clear
3:53 PM 30.0°F 24.1°F 79% 30.34 in 7.0 miles Calm Calm - N/A   Clear
4:53 PM 30.0°F 24.1°F 79% 30.33 in 8.0 miles Calm Calm - N/A   Overcast
5:53 PM 30.0°F 25.0°F 82% 30.32 in 8.0 miles NNW 3.5 mph - N/A   Overcast
6:53 PM 28.9°F 25.0°F 85% 30.32 in 8.0 miles Calm Calm - N/A   Overcast
7:19 PM 28.4°F 24.8°F 86% 30.28 in 8.0 miles Calm Calm - N/A   Overcast
7:53 PM 28.9°F 25.0°F 85% 30.32 in 9.0 miles Calm Calm - N/A   Overcast
8:53 PM 28.9°F 25.0°F 85% 30.32 in 7.0 miles Calm Calm - N/A   Overcast
9:23 PM 28.4°F 24.8°F 86% 30.26 in 8.0 miles ESE 4.6 mph - N/A   Overcast
9:53 PM 30.0°F 25.0°F 82% 30.30 in 8.0 miles ESE 4.6 mph - N/A   Overcast
10:53 PM 30.9°F 24.1°F 76% 30.27 in 8.0 miles Calm Calm - N/A   Overcast
11:53 PM 30.0°F 27.0°F 88% 30.25 in 6.0 miles NNW 4.6 mph - N/A   Overcast
Moon Phase
Jan. 05 Jan. 11 Jan. 18 Jan. 26 Feb. 03
Sunrise:07:35 AM (PST) Moon Rise:12:35 AM (PST)1/5
Sunset:04:22 PM (PST) Moon Set:11:25 AM (PST)1/5

Copyright © 2014 The Weather Underground, Inc.